Lid_Strength_Index
-1 1 0 2 6 7 8 7 5 6 5 4 3 4 5 4 6 7 1 1 -0 -0 -1 -1 -1 -1 -1 -1 -1 -1 -1 -1 -1 -1 -1 -1 -1 -1 -1 -1 -1 -2 -2 -2 -2 -1 -1 -1 -1
2 1 2 3 8 9 8 6 6 5 4 3 4 4 5 6 3 2 2 -0 -0 -0 -1 -1 -1 -1 -1 -1 -1 -1 -1 -1 -1 -1 -1 -1 -1 -1 -1 -1 -2 -2 -2 -2 -2 -2 -1 -1 -1
-0 2 4 6 7 9 8 6 5 4 4 4 4 3 4 5 2 2 0 -0 -0 -0 -1 -1 -1 -1 -1 -1 -1 -1 -1 -1 -2 -2 -2 -1 -1 -2 -2 -2 -2 -2 -2 -2 -2 -2 -2 -1 -1
2 3 4 7 8 6 6 5 5 5 4 3 3 5 3 1 2 1 -0 -0 -0 -0 -1 -1 -1 -1 -1 -1 -1 -1 -1 -1 -2 -2 -2 -2 -2 -2 -2 -2 -2 -2 -2 -2 -2 -1 -1 -1 -1
2 4 7 8 8 6 5 4 4 5 4 4 4 5 4 1 1 0 0 -0 -0 -0 -1 -1 -1 -1 -1 -1 -1 -1 -1 -1 -1 -2 -2 -2 -2 -2 -2 -2 -2 -2 -2 -2 -2 -2 -2 -1 -1
6 5 8 9 8 6 5 4 4 4 4 4 4 4 3 1 1 0 0 0 -0 -0 -1 -1 -1 -1 -1 -1 -1 -1 -1 -1 -1 -1 -2 -2 -2 -2 -2 -2 -2 -2 -2 -2 -2 -2 -2 -1 -1
6 7 9 8 8 7 5 4 4 5 4 4 3 5 3 2 1 0 0 -0 -0 -0 -1 -1 -1 -1 -1 -1 -1 -1 -1 -1 -1 -1 -1 -1 -2 -2 -2 -2 -2 -2 -2 -2 -2 -2 -2 -1 -1
5 6 8 8 9 9 6 5 4 4 4 2 3 5 5 2 1 0 0 -0 -0 -0 -0 -1 -1 -1 -1 -1 -1 -1 -1 -1 -1 -1 -1 -1 -1 -1 -2 -1 -2 -2 -2 -2 -2 -2 -2 -1 -1
3 7 9 8 8 8 6 6 4 3 3 3 3 3 2 1 1 1 1 1 0 0 -0 -0 -0 -1 -1 -1 -1 -1 -1 -1 -1 -1 -1 -1 -1 -2 -2 -2 -2 -2 -2 -2 -2 -1 -1 -1 -1
5 8 8 6 6 6 6 6 5 4 4 4 3 2 2 1 1 2 2 2 1 1 0 -0 -1 -1 -1 -0 -1 -1 -1 -1 -1 -1 -2 -1 -2 -2 -2 -2 -2 -2 -2 -1 -1 -1 -1 -1 -1
5 8 5 5 5 5 5 5 4 5 5 4 4 3 2 2 2 2 2 1 1 0 0 0 -0 -1 -1 -0 -1 -0 -1 -1 -1 -2 -2 -2 -1 -2 -1 -1 -1 -2 -1 -1 -1 -1 -1 -1 -1
7 5 5 5 4 5 6 4 5 4 4 3 2 2 2 3 2 2 2 1 1 1 0 -0 -0 -1 -1 -1 -0 -1 -0 -0 -0 -1 -2 -1 -0 -1 -1 -1 -1 -1 -1 -1 -1 -1 -1 -1 -1
7 6 5 4 4 4 4 5 5 4 3 3 3 2 3 3 2 1 1 1 1 1 0 -0 -1 -0 -0 -0 -0 -1 -0 -0 -1 -1 -1 -1 -0 -0 -1 -1 -1 -1 -1 -1 -1 -1 -1 -0 -1
4 5 5 4 4 4 5 6 5 4 3 3 4 3 2 3 2 1 1 1 1 0 0 -0 -1 -0 -0 -0 -0 -0 -1 -1 -1 -1 -1 -1 -0 -0 -0 -0 -0 -0 -1 -1 -1 -0 -0 -0 -0
5 6 5 5 5 5 5 7 7 4 3 4 3 3 3 2 2 2 1 1 0 0 -0 -0 -1 -1 -0 -0 -0 -0 -0 -1 -0 -0 -1 -1 -1 -1 -1 -0 -0 -0 -1 -1 -1 -1 -1 -0 -1
8 6 9 6 5 5 5 10 6 4 4 4 4 3 3 2 2 1 1 0 0 -0 -0 -1 -0 -1 -1 -1 -1 -0 -1 -0 -0 -0 -1 -1 -1 -1 -1 -0 -0 -1 -1 -1 -0 -0 0 0 0
9 11 9 8 5 5 6 8 6 4 5 5 4 3 3 3 2 1 1 1 0 -0 -0 -0 -1 -0 -1 -1 -1 -1 -1 -0 -0 -1 -0 -1 -0 -1 -0 -0 -0 -1 -0 -0 -0 0 -0 1 1
11 10 9 9 7 6 7 7 5 5 5 5 4 4 3 3 2 1 1 1 0 -0 -0 -0 -0 -1 -1 -0 -1 -0 -0 -0 -0 -0 -0 -1 -1 -1 -0 -0 -0 -1 -0 0 -0 -0 -0 0 1
9 10 10 8 6 6 7 7 6 5 5 5 4 4 4 3 2 1 1 1 0 0 0 0 0 -0 -0 1 1 1 1 1 0 -0 -1 -1 -0 -1 -0 -0 -0 -0 0 -0 -0 0 1 1 0
9 10 11 9 7 6 7 7 6 5 5 5 4 4 4 3 3 2 2 1 1 1 0 1 0 0 0 0 0 0 0 0 0 -0 -0 -1 -0 -1 -0 -0 0 -0 0 -0 0 0 1 1 0
10 10 10 10 8 6 7 8 7 5 4 4 4 4 3 3 3 2 2 2 1 1 1 1 0 0 0 -0 0 0 0 0 1 1 1 0 -0 -0 -0 -0 -0 0 -0 1 0 0 1 2 1
11 8 9 10 10 12 7 13 8 7 6 5 4 4 4 3 3 2 2 2 1 1 1 0 0 0 0 0 0 1 2 2 1 1 1 0 -0 -0 -0 -0 -0 -0 0 0 0 0 0 0 2
8 7 7 8 9 10 9 11 9 7 8 6 5 4 4 3 3 3 3 2 1 1 1 0 0 0 0 0 0 1 1 1 1 1 1 0 0 -0 -0 -0 -0 -0 0 -0 -0 -0 0 1 1
6 7 8 8 9 13 10 11 11 9 7 6 5 4 4 3 3 3 3 2 2 2 1 0 0 1 0 0 1 1 1 1 1 1 2 1 1 1 0 -0 -0 -1 -0 -0 -0 -1 -0 0 1
7 9 13 14 14 14 9 11 10 7 6 5 5 4 4 3 3 2 2 2 3 2 1 1 1 1 1 1 1 1 1 1 1 2 1 1 2 1 1 0 0 0 -0 -0 -0 -0 -0 0 0
8 9 13 19 17 14 10 13 10 6 5 4 4 4 3 3 3 2 2 2 2 1 1 1 1 1 1 1 1 1 0 1 1 1 1 1 1 1 -0 -0 -0 -0 -0 -0 -1 -0 0 -0 0
9 11 8 12 12 16 14 10 7 6 6 5 5 4 4 4 3 3 2 2 2 1 1 1 1 1 1 1 1 1 1 1 1 1 0 1 -0 0 -0 -0 -0 -0 -0 -0 -0 0 0 -0 0
8 7 14 11 16 17 14 12 11 8 7 6 5 5 4 3 3 3 3 3 2 1 1 1 1 2 1 1 1 1 1 0 1 0 0 0 -0 -0 -0 -0 -0 -0 -0 -0 -0 0 -0 0 0
9 10 9 10 13 15 18 13 7 7 6 6 5 4 4 4 3 3 3 3 2 2 2 1 2 2 2 1 1 1 1 1 1 1 0 0 -0 -0 0 0 0 0 0 0 0 -0 0 0 0
7 9 11 16 16 11 12 13 7 6 5 5 5 4 4 3 3 3 3 3 3 2 2 2 2 2 2 1 1 1 1 1 1 1 0 -0 0 -0 -0 0 0 0 0 0 1 0 0 1 1